Weather History for KBJC - October, 2010

Change the Weather History Date:

Monday, October 18, 2010

  Actual Average Record
Temperature  
Mean Temperature 50 °F -  
Max Temperature 59 °F 62 °F 84 °F (2003)
Min Temperature 41 °F 39 °F 24 °F (2006)
Degree Days  
Heating Degree Days 15    
Moisture  
Dew Point 33 °F    
Average Humidity 55    
Maximum Humidity 71    
Minimum Humidity 33    
Precipitation  
Precipitation 0.00 in - - ()
Sea Level Pressure  
Sea Level Pressure 30.19 in    
Wind  
Wind Speed 6 mph (North)    
Max Wind Speed 16 mph    
Max Gust Speed 23 mph    
Visibility 13 miles    
Events      
Averages and records for this station are not official NWS values.
T = Trace of Precipitation, MM = Missing Value Source: NWS Daily Summary

Daily Weather History Graph

Daily Weather History Graph

Search for Another Location

Airport or City:

Trip Planner

Search our weather history database for the weather conditions in past years. The results will help you decide how hot, cold, wet, or windy it might be!

Date:

Astronomy

Oct. 18, 2010 Rise Set
Actual Time 7:13 AM MDT 6:16 PM MDT
Civil Twilight 6:46 AM MDT 6:43 PM MDT
Nautical Twilight 6:15 AM MDT 7:15 PM MDT
Astronomical Twilight 5:43 AM MDT 7:46 PM MDT
Moon 4:02 PM MDT (10/18) 3:05 AM MDT (10/18)
Length of Visible Light 11h 57m
Length of Day
11h 02m
Waxing Gibbous, 84% of the Moon is Illuminated
Oct 18
Waxing Gibbous
Oct 22
Full
Oct 30
Last Quarter
Nov 5
New
Nov 13
First Quarter

Hourly Weather History & Observations

Time (MDT) Temp. Windchill Dew Point Humidity Pressure Visibility Wind Dir Wind Speed Gust Speed Precip Events Conditions
12:17 AM 59.0 °F - 32.0 °F 36% 30.13 in 10.0 mi Calm Calm - N/A   Overcast
12:37 AM 59.0 °F - 32.0 °F 36% 30.13 in 10.0 mi Calm Calm - N/A   Overcast
12:57 AM 57.2 °F - 33.8 °F 41% 30.14 in 10.0 mi East 4.6 mph - N/A   Overcast
1:17 AM 55.4 °F - 35.6 °F 47% 30.16 in 10.0 mi North 16.1 mph 23.0 mph N/A   Overcast
1:37 AM 51.8 °F - 35.6 °F 54% 30.17 in 10.0 mi North 13.8 mph - N/A   Overcast
1:57 AM 50.0 °F - 32.0 °F 50% 30.18 in 10.0 mi North 10.4 mph 20.7 mph N/A   Mostly Cloudy
2:17 AM 50.0 °F - 32.0 °F 50% 30.19 in 10.0 mi North 9.2 mph - N/A   Scattered Clouds
2:57 AM 46.4 °F 41.9 °F 30.2 °F 53% 30.19 in 10.0 mi North 9.2 mph - N/A   Clear
3:17 AM 46.4 °F 41.1 °F 32.0 °F 57% 30.19 in 10.0 mi North 11.5 mph - N/A   Clear
3:37 AM 44.6 °F 38.8 °F 32.0 °F 61% 30.19 in 10.0 mi North 11.5 mph - N/A   Clear
3:57 AM 44.6 °F 40.2 °F 32.0 °F 61% 30.19 in 10.0 mi NNW 8.1 mph - N/A   Clear
4:17 AM 44.6 °F 40.2 °F 32.0 °F 61% 30.19 in 10.0 mi NNW 8.1 mph - N/A   Clear
4:37 AM 44.6 °F 40.7 °F 32.0 °F 61% 30.20 in 10.0 mi North 6.9 mph - N/A   Clear
4:57 AM 44.6 °F 40.7 °F 32.0 °F 61% 30.21 in 10.0 mi NNW 6.9 mph - N/A   Clear
5:17 AM 44.6 °F 40.7 °F 32.0 °F 61% 30.22 in 10.0 mi NNW 6.9 mph - N/A   Clear
5:37 AM 42.8 °F 39.3 °F 32.0 °F 66% 30.22 in 10.0 mi North 5.8 mph - N/A   Clear
5:48 AM 44.6 °F 41.4 °F 32.0 °F 61% 30.22 in 20.0 mi NNW 5.8 mph - N/A   Clear
5:57 AM 42.8 °F 38.6 °F 32.0 °F 66% 30.22 in 10.0 mi North 6.9 mph - N/A   Clear
6:47 AM 42.8 °F 40.1 °F 32.0 °F 66% 30.24 in 30.0 mi North 4.6 mph - N/A   Scattered Clouds
7:47 AM 41.0 °F 39.0 °F 32.0 °F 70% 30.24 in 30.0 mi Variable 3.5 mph - N/A   Scattered Clouds
8:45 AM 46.4 °F 45.2 °F 30.2 °F 53% 30.25 in 30.0 mi Variable 3.5 mph - N/A   Scattered Clouds
9:47 AM 48.2 °F - 30.2 °F 50% 30.24 in 30.0 mi Variable 3.5 mph - N/A   Mostly Cloudy
10:55 AM 50.0 °F - 28.4 °F 43% 30.24 in 30.0 mi NE 3.5 mph - N/A   Overcast
11:45 AM 53.6 °F - 28.4 °F 38% 30.22 in 20.0 mi ENE 5.8 mph - N/A   Overcast
12:56 PM 55.4 °F - 28.4 °F 36% 30.22 in 20.0 mi ESE 8.1 mph - N/A   Mostly Cloudy
1:47 PM 57.2 °F - 28.4 °F 33% 30.18 in 20.0 mi NE 6.9 mph - N/A   Mostly Cloudy
3:50 PM 55.4 °F - 28.4 °F 36% 30.17 in 20.0 mi NNE 9.2 mph - N/A   Overcast
4:47 PM 53.6 °F - 32.0 °F 44% 30.17 in 20.0 mi North 13.8 mph - N/A   Overcast
5:52 PM 48.2 °F - 37.4 °F 66% 30.18 in 20.0 mi NW 10.4 mph - N/A   Overcast
6:47 PM 48.2 °F - 39.2 °F 71% 30.18 in 20.0 mi West 6.9 mph - N/A   Overcast
7:47 PM 48.2 °F - 39.2 °F 71% 30.17 in 20.0 mi SW 5.8 mph - N/A   Overcast
8:54 PM 48.2 °F - 37.4 °F 66% 30.18 in 20.0 mi SSW 8.1 mph - N/A   Mostly Cloudy
9:45 PM 50.0 °F - 35.6 °F 58% 30.17 in 20.0 mi SSW 4.6 mph - N/A   Overcast
10:17 PM 50.0 °F - 35.6 °F 58% 30.16 in 10.0 mi South 8.1 mph - N/A   Overcast
10:37 PM 48.2 °F - 35.6 °F 62% 30.16 in 10.0 mi South 8.1 mph - N/A   Overcast
10:57 PM 48.2 °F - 35.6 °F 62% 30.16 in 10.0 mi SSE 5.8 mph - N/A   Overcast
11:16 PM 48.2 °F - 35.6 °F 62% 30.16 in 10.0 mi SSE 3.5 mph - N/A   Overcast
11:37 PM 46.4 °F 45.2 °F 35.6 °F 66% 30.15 in 10.0 mi ESE 3.5 mph - N/A   Overcast
11:57 PM 46.4 °F - 35.6 °F 66% 30.15 in 10.0 mi Calm Calm - N/A   Scattered Clouds